DW1253 Weather Reports


time (UTC)temp
C
wind
direction
speed
KPH
gust
KPH
rain 1hr
cm
rain 24hr
cm
rain mn
cm
humidity
%
barometer
mb
20260508052404 3 225 0.0 6.4 0.00 0.00 0.00 94 1010.0
20260508051845 3 224 3.2 8.0 0.00 0.00 0.00 94 1010.3
20260508051346 3 254 3.2 8.0 0.00 0.00 0.00 94 1010.3
20260508050848 3 236 4.8 8.0 0.00 0.00 0.00 94 1010.3
20260508045842 3 231 1.6 8.0 0.00 0.00 0.00 94 1010.2
20260508045337 3 234 3.2 6.4 0.00 0.00 0.00 94 1010.3
20260508044838 3 225 1.6 8.0 0.00 0.00 0.00 94 1010.3
20260508044357 2 261 3.2 4.8 0.00 0.00 0.00 94 1010.4
20260508043918 2 242 3.2 8.0 0.00 0.00 0.00 93 1010.2
20260508043355 2 221 3.2 8.0 0.00 0.00 0.00 93 1010.3
20260508042914 2 219 0.0 0.0 0.00 0.00 0.00 93 1010.2
20260508042340 3 219 0.0 0.0 0.00 0.00 0.00 93 1010.2
20260508041854 2 219 0.0 0.0 0.00 0.00 0.00 93 1010.2
20260508041404 3 219 0.0 0.0 0.00 0.00 0.00 93 1010.2
20260508040843 3 219 0.0 0.0 0.00 0.00 0.00 93 1010.1
20260508040337 3 219 0.0 0.0 0.00 0.00 0.00 93 1010.1
20260508035906 3 219 0.0 0.0 0.00 0.00 0.00 92 1010.0
20260508035347 3 219 0.0 0.0 0.00 0.00 0.00 92 1010.0
20260508034901 3 219 0.0 0.0 0.00 0.00 0.00 92 1010.1
20260508034336 3 219 0.0 0.0 0.00 0.00 0.00 92 1010.0
20260508033838 3 219 0.0 0.0 0.00 0.00 0.00 92 1010.1
20260508033342 3 219 0.0 0.0 0.00 0.00 0.00 92 1010.1
20260508032842 3 219 0.0 0.0 0.00 0.00 0.00 92 1010.1
20260508032337 3 219 0.0 0.0 0.00 0.00 0.00 91 1010.1
20260508031911 3 219 0.0 0.0 0.00 0.00 0.00 91 1010.0
20260508031357 3 219 0.0 0.0 0.00 0.00 0.00 91 1010.0
20260508030844 3 219 0.0 0.0 0.00 0.00 0.00 90 1010.0
20260508030336 3 219 0.0 0.0 0.00 0.00 0.00 90 1010.0
20260508025903 3 219 0.0 0.0 0.00 0.00 0.00 90 1010.1
20260508025336 3 219 0.0 0.0 0.00 0.00 0.00 89 1010.1
20260508024834 4 219 0.0 0.0 0.00 0.00 0.00 89 1010.0
20260508024350 4 219 0.0 0.0 0.00 0.00 0.00 89 1010.0
20260508023846 4 219 0.0 4.8 0.00 0.00 0.00 88 1010.0
20260508023338 5 219 0.0 4.8 0.00 0.00 0.00 88 1010.0
20260508022842 5 300 0.0 8.0 0.00 0.00 0.00 88 1010.0
20260508022341 5 299 3.2 9.7 0.00 0.00 0.00 88 1010.0
20260508021837 5 165 0.0 6.4 0.00 0.00 0.00 87 1010.1
20260508021334 5 165 3.2 6.4 0.00 0.00 0.00 87 1010.1
20260508020840 5 274 3.2 6.4 0.00 0.00 0.00 86 1010.0
20260508020333 5 137 0.0 4.8 0.00 0.00 0.00 86 1010.0
20260508015844 5 159 0.0 3.2 0.00 0.00 0.00 85 1009.9
20260508015342 5 57 0.0 4.8 0.00 0.00 0.00 84 1009.9
20260508014836 5 57 1.6 8.0 0.00 0.00 0.00 84 1009.8
20260508014353 5 252 3.2 8.0 0.00 0.00 0.00 84 1009.9
20260508013906 5 36 1.6 4.8 0.00 0.00 0.00 84 1009.9
20260508013346 5 219 1.6 3.2 0.00 0.00 0.00 83 1009.8
20260508012834 5 219 1.6 4.8 0.00 0.00 0.00 82 1009.8
20260508012337 5 219 3.2 4.8 0.00 0.00 0.00 81 1009.8
20260508011838 5 219 3.2 4.8 0.00 0.00 0.00 81 1009.6
20260508011351 5 219 1.6 4.8 0.00 0.00 0.00 80 1009.4
20260508010856 5 219 0.0 3.2 0.00 0.00 0.00 79 1009.4
20260508010351 5 219 0.0 4.8 0.00 0.00 0.00 79 1009.4
20260508005906 5 355 0.0 6.4 0.00 0.00 0.00 77 1009.3
20260508005349 5 256 3.2 6.4 0.00 0.00 0.00 77 1009.2
20260508004848 5 215 1.6 4.8 0.00 0.00 0.00 75 1009.2
20260508004345 5 215 3.2 4.8 0.00 0.00 0.00 74 1009.3
20260508003842 5 293 0.0 8.0 0.00 0.00 0.00 74 1009.1
20260508003338 5 244 1.6 12.9 0.00 0.00 0.00 72 1008.9
20260508002853 5 298 4.8 12.9 0.00 0.00 0.00 71 1008.9
20260508002416 5 211 1.6 6.4 0.00 0.00 0.00 69 1008.8
20260508001855 5 205 1.6 6.4 0.00 0.00 0.00 68 1008.7
20260508001351 6 254 1.6 6.4 0.00 0.00 0.00 67 1008.7
20260508000853 6 244 3.2 6.4 0.00 0.00 0.00 66 1008.8
20260508000336 6 288 3.2 6.4 0.00 0.00 0.00 65 1008.8
20260507235909 6 151 1.6 8.0 0.00 0.00 0.00 65 1008.7
20260507235353 6 137 3.2 14.5 0.00 0.00 0.00 66 1008.7
20260507234847 6 34 4.8 14.5 0.00 0.00 0.00 65 1008.7
20260507234400 6 133 4.8 6.4 0.00 0.00 0.00 64 1008.7
20260507233841 7 202 3.2 6.4 0.00 0.00 0.00 64 1008.7
20260507233339 7 201 3.2 6.4 0.00 0.00 0.00 65 1008.8
20260507232852 7 283 3.2 6.4 0.00 0.00 0.00 62 1008.8
20260507232344 7 261 1.6 6.4 0.00 0.00 0.00 61 1008.8
20260507231843 7 225 1.6 6.4 0.00 0.00 0.00 63 1008.8
20260507231336 8 283 1.6 12.9 0.00 0.00 0.00 60 1008.7
20260507230834 8 242 3.2 12.9 0.00 0.00 0.00 59 1008.6
20260507230353 8 266 3.2 11.3 0.00 0.00 0.00 59 1008.7
20260507225354 8 229 3.2 6.4 0.00 0.00 0.00 60 1008.6
20260507224843 8 88 1.6 6.4 0.00 0.00 0.00 58 1008.6
20260507224343 8 242 3.2 8.0 0.00 0.00 0.00 61 1008.6
20260507223840 8 201 4.8 12.9 0.00 0.00 0.00 59 1008.5
20260507223337 9 135 3.2 12.9 0.00 0.00 0.00 55 1008.5
20260507222838 9 182 3.2 9.7 0.00 0.00 0.00 56 1008.5
20260507222355 9 232 1.6 9.7 0.00 0.00 0.00 57 1008.5
20260507221850 9 126 1.6 6.4 0.00 0.00 0.00 56 1008.5
20260507221348 9 50 3.2 12.9 0.00 0.00 0.00 56 1008.5
20260507220908 9 360 4.8 12.9 0.00 0.00 0.00 54 1008.5
20260507220345 9 28 3.2 12.9 0.00 0.00 0.00 56 1008.5
20260507215839 10 13 3.2 8.0 0.00 0.00 0.00 55 1008.5
20260507215353 10 325 1.6 14.5 0.00 0.00 0.00 56 1008.5
20260507214849 10 9 3.2 14.5 0.00 0.00 0.00 56 1008.4
20260507214343 10 207 3.2 12.9 0.00 0.00 0.00 53 1008.3
20260507213836 10 317 3.2 12.9 0.00 0.00 0.00 57 1008.3
20260507213335 10 140 3.2 11.3 0.00 0.00 0.00 53 1008.3
20260507212840 11 9 4.8 8.0 0.00 0.00 0.00 52 1008.3
20260507212359 11 48 3.2 12.9 0.00 0.00 0.00 50 1008.4
20260507211856 11 239 3.2 16.1 0.00 0.00 0.00 50 1008.4
20260507211341 11 221 6.4 16.1 0.00 0.00 0.00 53 1008.4
20260507210847 11 204 3.2 12.9 0.00 0.00 0.00 48 1008.4
20260507210349 10 290 4.8 12.9 0.00 0.00 0.00 51 1008.4
20260507205849 10 333 3.2 16.1 0.00 0.00 0.00 52 1008.5
20260507205345 10 263 6.4 16.1 0.00 0.00 0.00 48 1008.4
20260507204907 10 5 3.2 12.9 0.00 0.00 0.00 49 1008.4
20260507204342 11 63 4.8 9.7 0.00 0.00 0.00 45 1008.5
20260507203852 11 194 4.8 14.5 0.00 0.00 0.00 47 1008.4
20260507203353 11 236 3.2 14.5 0.00 0.00 0.00 50 1008.5
20260507202839 11 34 4.8 12.9 0.00 0.00 0.00 46 1008.5
20260507202351 11 238 4.8 14.5 0.00 0.00 0.00 47 1008.5
20260507201843 11 290 4.8 14.5 0.00 0.00 0.00 46 1008.4
20260507201354 11 282 4.8 12.9 0.00 0.00 0.00 44 1008.4
20260507200848 11 242 6.4 19.3 0.00 0.00 0.00 44 1008.5
20260507200349 11 256 8.0 19.3 0.00 0.00 0.00 47 1008.4
20260507195844 12 180 4.8 17.7 0.00 0.00 0.00 43 1008.4
20260507195411 12 307 6.4 24.1 0.00 0.00 0.00 47 1008.4
20260507194842 12 9 8.0 24.1 0.00 0.00 0.00 47 1008.4
20260507194346 12 257 4.8 14.5 0.00 0.00 0.00 44 1008.4
20260507193842 11 227 4.8 11.3 0.00 0.00 0.00 48 1008.4
20260507193405 11 210 6.4 14.5 0.00 0.00 0.00 47 1008.5
20260507192839 12 265 8.0 14.5 0.00 0.00 0.00 44 1008.5
20260507192354 12 242 4.8 12.9 0.00 0.00 0.00 44 1008.6
20260507191840 12 321 4.8 14.5 0.00 0.00 0.00 48 1008.7
20260507191348 12 317 4.8 14.5 0.00 0.00 0.00 47 1008.6
20260507190844 12 250 3.2 12.9 0.00 0.00 0.00 48 1008.7
20260507190337 11 219 6.4 19.3 0.00 0.00 0.00 51 1008.7
20260507185845 11 253 4.8 19.3 0.00 0.00 0.00 50 1008.9
20260507185346 11 190 4.8 14.5 0.00 0.00 0.00 50 1008.8
20260507184920 11 286 3.2 14.5 0.00 0.00 0.00 48 1008.9
20260507184414 11 266 4.8 14.5 0.00 0.00 0.00 48 1008.7
20260507183914 12 121 4.8 17.7 0.00 0.00 0.00 54 1008.9
20260507183347 12 264 4.8 17.7 0.00 0.00 0.00 51 1008.8
20260507182845 12 236 6.4 14.5 0.00 0.00 0.00 52 1008.9
20260507182343 11 315 4.8 14.5 0.00 0.00 0.00 51 1008.9
20260507181833 11 205 4.8 22.5 0.00 0.00 0.00 50 1009.0
20260507181351 11 192 11.3 22.5 0.00 0.00 0.00 50 1009.0
20260507180900 11 162 8.0 16.1 0.00 0.00 0.00 57 1009.0
20260507180410 11 138 6.4 14.5 0.00 0.00 0.00 51 1009.1
20260507175852 11 252 8.0 14.5 0.00 0.00 0.00 59 1009.1
20260507175356 11 204 4.8 9.7 0.00 0.00 0.00 58 1009.2
20260507174908 11 202 3.2 12.9 0.00 0.00 0.00 55 1009.2
20260507174335 11 267 4.8 9.7 0.00 0.00 0.00 58 1009.2
20260507173838 11 270 4.8 16.1 0.00 0.00 0.00 56 1009.3
20260507173351 11 337 6.4 16.1 0.00 0.00 0.00 60 1009.2
20260507172851 11 123 4.8 17.7 0.00 0.00 0.00 59 1009.1
20260507172405 10 205 8.0 17.7 0.00 0.00 0.00 55 1009.1
20260507171843 10 99 4.8 11.3 0.00 0.00 0.00 65 1009.3
20260507171412 11 237 4.8 17.7 0.00 0.00 0.00 58 1009.2
20260507170852 11 40 8.0 20.9 0.00 0.00 0.00 62 1009.4
20260507170342 10 251 11.3 22.5 0.00 0.00 0.00 63 1009.4
20260507165845 10 251 11.3 22.5 0.00 0.00 0.00 62 1009.4
20260507165349 10 182 4.8 14.5 0.00 0.00 0.00 66 1009.5
20260507164846 10 284 4.8 11.3 0.00 0.00 0.00 65 1009.6
20260507164339 10 302 3.2 9.7 0.00 0.00 0.00 62 1009.6
20260507163859 11 31 4.8 9.7 0.00 0.00 0.00 65 1009.6
20260507163336 10 339 4.8 16.1 0.00 0.00 0.00 63 1009.7
20260507162846 10 348 6.4 16.1 0.00 0.00 0.00 67 1009.7
20260507162340 10 55 3.2 9.7 0.00 0.00 0.00 63 1009.8
20260507161900 10 36 4.8 9.7 0.00 0.00 0.00 65 1009.8
20260507161344 10 205 4.8 14.5 0.00 0.00 0.00 63 1009.8
20260507160846 10 340 3.2 22.5 0.00 0.00 0.00 62 1009.8
20260507160344 11 312 8.0 22.5 0.00 0.00 0.00 57 1009.9
20260507155855 11 210 4.8 20.9 0.00 0.00 0.00 59 1009.9
20260507155335 11 267 6.4 19.3 0.00 0.00 0.00 64 1009.9
20260507154838 10 205 4.8 12.9 0.00 0.00 0.00 65 1009.9
20260507154418 10 215 4.8 12.9 0.00 0.00 0.00 65 1010.0
20260507153909 9 53 4.8 11.3 0.00 0.00 0.00 66 1010.0
20260507153349 9 33 3.2 16.1 0.00 0.00 0.00 67 1010.0
20260507152844 10 96 3.2 16.1 0.00 0.00 0.00 66 1010.1
20260507152342 10 38 3.2 17.7 0.00 0.00 0.00 69 1010.1
20260507151901 10 222 11.3 17.7 0.00 0.00 0.00 68 1010.1
20260507151409 10 240 4.8 17.7 0.00 0.00 0.00 73 1010.2
20260507150847 8 104 3.2 11.3 0.00 0.00 0.00 70 1010.2
20260507150338 9 278 3.2 16.1 0.00 0.00 0.00 69 1010.2
20260507145839 8 41 4.8 16.1 0.00 0.00 0.00 71 1010.2
20260507145342 8 245 4.8 8.0 0.00 0.00 0.00 72 1010.3
20260507144844 9 351 3.2 8.0 0.00 0.00 0.00 69 1010.2
20260507144342 9 24 3.2 8.0 0.00 0.00 0.00 72 1010.1
20260507143844 8 302 3.2 6.4 0.00 0.00 0.00 76 1010.2
20260507143345 7 277 3.2 8.0 0.00 0.00 0.00 73 1010.3
20260507142858 8 295 3.2 11.3 0.00 0.00 0.00 72 1010.3
20260507142410 8 67 3.2 11.3 0.00 0.00 0.00 75 1010.3
20260507141852 8 49 3.2 12.9 0.00 0.00 0.00 73 1010.3
20260507141352 7 237 4.8 12.9 0.00 0.00 0.00 72 1010.3
20260507140846 8 240 4.8 9.7 0.00 0.00 0.00 75 1010.3
20260507140350 7 227 3.2 19.3 0.00 0.00 0.00 73 1010.4
20260507135843 7 217 4.8 19.3 0.00 0.03 0.00 77 1010.5
20260507135345 7 214 6.4 12.9 0.00 0.03 0.00 76 1010.5
20260507134908 7 259 4.8 12.9 0.00 0.03 0.00 78 1010.6
20260507134353 7 284 3.2 12.9 0.00 0.03 0.00 77 1010.7
20260507133852 7 223 4.8 14.5 0.00 0.03 0.00 76 1010.5
20260507133347 7 280 8.0 14.5 0.00 0.03 0.00 75 1010.6
20260507132834 7 221 3.2 8.0 0.00 0.03 0.00 77 1010.4
20260507132350 7 138 1.6 9.7 0.00 0.03 0.00 77 1010.5
20260507131852 6 263 3.2 9.7 0.00 0.03 0.00 77 1010.4
20260507131345 7 200 3.2 11.3 0.00 0.03 0.00 77 1010.5
20260507130844 7 234 4.8 11.3 0.00 0.03 0.00 80 1010.5
20260507130338 6 252 0.0 11.3 0.00 0.03 0.00 82 1010.5
20260507125846 6 234 3.2 11.3 0.00 0.08 0.00 82 1010.5
20260507125339 6 246 4.8 8.0 0.00 0.08 0.00 85 1010.5
20260507124839 6 223 3.2 8.0 0.00 0.08 0.00 84 1010.6
20260507124341 6 355 3.2 8.0 0.00 0.08 0.00 83 1010.7
20260507123840 6 160 1.6 6.4 0.00 0.08 0.00 84 1010.6
20260507123350 6 306 1.6 9.7 0.00 0.08 0.00 85 1010.7
20260507122848 6 268 3.2 9.7 0.00 0.08 0.00 84 1010.6
20260507122336 5 26 1.6 9.7 0.00 0.08 0.00 83 1010.6
20260507121855 6 5 1.6 4.8 0.00 0.08 0.00 83 1010.6
20260507121339 6 121 0.0 4.8 0.00 0.08 0.00 83 1010.6
20260507120852 5 320 1.6 4.8 0.00 0.08 0.00 85 1010.9
20260507120338 5 216 1.6 4.8 0.00 0.08 0.00 84 1010.9
20260507115852 5 280 0.0 4.8 0.00 0.20 0.00 88 1010.9
20260507115350 4 208 0.0 1.6 0.00 0.20 0.00 92 1010.8
20260507114846 3 208 1.6 3.2 0.00 0.20 0.00 93 1010.8
20260507114336 3 208 0.0 3.2 0.00 0.20 0.00 93 1010.8
20260507113840 3 208 0.0 1.6 0.00 0.20 0.00 93 1010.9
20260507113400 3 208 0.0 1.6 0.00 0.20 0.00 93 1010.7
20260507112844 3 208 0.0 1.6 0.00 0.20 0.00 93 1010.6
20260507112357 3 208 0.0 1.6 0.00 0.20 0.00 93 1010.5
20260507111837 2 208 0.0 3.2 0.00 0.20 0.00 93 1010.4
20260507111338 2 208 1.6 3.2 0.00 0.20 0.00 93 1010.4
20260507110857 2 241 0.0 3.2 0.00 0.20 0.00 93 1010.3
20260507110336 2 241 0.0 4.8 0.00 0.20 0.00 93 1010.2
20260507105836 2 241 1.6 4.8 0.00 0.28 0.00 93 1010.2
20260507105413 2 241 1.6 3.2 0.00 0.28 0.00 93 1010.0
20260507104855 2 241 1.6 3.2 0.00 0.28 0.00 93 1010.1
20260507104348 2 241 0.0 3.2 0.00 0.28 0.00 93 1010.0
20260507103838 2 241 0.0 1.6 0.00 0.28 0.00 93 1009.9
20260507103353 2 241 0.0 1.6 0.00 0.28 0.00 93 1009.9
20260507102849 2 241 0.0 1.6 0.00 0.28 0.00 93 1010.0
20260507102346 2 241 0.0 1.6 0.00 0.28 0.00 93 1009.9
20260507101835 2 241 0.0 3.2 0.00 0.28 0.00 93 1009.9
20260507101354 2 241 0.0 3.2 0.00 0.28 0.00 93 1010.0
20260507100900 2 241 0.0 3.2 0.00 0.28 0.00 93 1010.0
20260507100400 2 241 0.0 4.8 0.00 0.28 0.00 93 1009.9
20260507095843 2 241 0.0 6.4 0.00 0.48 0.00 93 1009.9
20260507095340 2 252 1.6 6.4 0.00 0.48 0.00 93 1009.9
20260507094851 2 229 1.6 4.8 0.00 0.48 0.00 93 1009.8
20260507094351 2 254 0.0 3.2 0.00 0.48 0.00 93 1009.9
20260507093836 2 254 0.0 4.8 0.00 0.48 0.00 93 1009.8
20260507093347 2 265 0.0 3.2 0.00 0.48 0.00 93 1009.8
20260507092842 2 232 0.0 3.2 0.00 0.48 0.00 93 1009.8
20260507092354 2 232 0.0 1.6 0.00 0.48 0.00 93 1009.7
20260507091854 2 232 0.0 0.0 0.00 0.48 0.00 93 1009.8
20260507090856 3 232 0.0 3.2 0.00 0.48 0.00 93 1009.8
20260507090349 3 232 0.0 3.2 0.00 0.48 0.00 93 1009.8
20260507085839 3 232 0.0 3.2 0.00 0.64 0.00 93 1009.8
20260507085354 3 232 1.6 3.2 0.00 0.64 0.00 93 1009.8
20260507084855 3 232 1.6 3.2 0.00 0.64 0.00 93 1009.8
20260507084415 3 232 0.0 1.6 0.00 0.64 0.00 93 1009.9
20260507083837 3 232 0.0 1.6 0.00 0.64 0.00 93 1010.0
20260507083342 3 232 0.0 1.6 0.00 0.64 0.00 93 1010.0
20260507082834 3 232 0.0 1.6 0.00 0.64 0.00 93 1010.1
20260507082337 3 232 0.0 4.8 0.00 0.64 0.00 93 1010.1
20260507081840 3 232 1.6 6.4 0.00 0.64 0.00 93 1010.1
20260507081347 3 232 1.6 6.4 0.00 0.64 0.00 93 1010.1
20260507080845 3 244 1.6 8.0 0.00 0.64 0.00 93 1010.1
20260507080348 3 244 0.0 8.0 0.00 0.64 0.00 92 1010.1
20260507075835 3 247 1.6 6.4 0.00 0.74 0.00 92 1010.2
20260507075356 3 247 1.6 6.4 0.00 0.74 0.00 92 1010.2
20260507074914 3 248 0.0 4.8 0.00 0.74 0.00 92 1010.1
20260507074348 3 248 0.0 4.8 0.00 0.74 0.00 92 1010.1
20260507073845 3 248 1.6 4.8 0.00 0.74 0.00 92 1010.0
20260507073337 3 248 0.0 3.2 0.00 0.74 0.00 91 1010.0
20260507072854 3 248 1.6 3.2 0.00 0.74 0.00 91 1010.0
20260507072344 3 248 0.0 3.2 0.00 0.74 0.00 91 1009.9
20260507071846 3 248 1.6 3.2 0.00 0.74 0.00 91 1010.0
20260507071344 3 248 0.0 0.0 0.00 0.74 0.00 91 1010.0
20260507070837 3 248 0.0 3.2 0.00 0.74 0.00 91 1010.0
20260507070337 3 248 0.0 3.2 0.00 0.74 0.00 91 1010.0
20260507065850 3 248 0.0 4.8 0.00 1.14 0.00 90 1010.1
20260507065337 3 252 0.0 3.2 0.00 1.14 0.00 90 1010.3
20260507064839 3 284 0.0 0.0 0.00 1.14 0.00 90 1010.4
20260507064336 3 284 0.0 0.0 0.00 1.14 0.00 90 1010.5
20260507063907 3 284 0.0 0.0 0.00 1.14 0.00 90 1010.5
20260507063344 3 284 0.0 0.0 0.00 1.14 0.00 90 1010.6
20260507062846 3 284 0.0 0.0 0.00 1.14 0.00 90 1010.6
20260507062342 3 284 0.0 0.0 0.00 1.14 0.00 90 1010.6
20260507061859 3 284 0.0 0.0 0.00 1.14 0.00 90 1010.5
20260507061334 3 284 0.0 0.0 0.00 1.14 0.00 90 1010.5
20260507060855 3 284 0.0 0.0 0.00 1.14 0.00 91 1010.6
20260507060348 3 284 0.0 0.0 0.00 1.14 0.00 91 1010.5
20260507055836 3 284 0.0 0.0 0.00 1.40 0.00 91 1010.4
20260507055334 4 284 0.0 0.0 0.00 1.40 0.00 91 1010.5
20260507054849 4 284 0.0 0.0 0.00 1.40 0.00 91 1010.6
20260507054342 4 284 0.0 0.0 0.00 1.40 0.00 91 1010.5
20260507053834 4 284 0.0 0.0 0.00 1.40 0.00 91 1010.6
20260507053351 4 284 0.0 0.0 0.00 1.40 0.00 91 1010.7
20260507052913 4 284 0.0 0.0 0.00 1.40 0.00 91 1010.7